Location: Kuffner-Sternwarte
(48.2130°N, 16.2960°E)
Time: 15:56:15
(UTC+02:00)

COROT - Pass Details

Date: 12 May 2026
Orbit: 594 x 855 km, 90.1° (Epoch: 21 May)

Event Time Altitude Azimuth Distance (km) Brightness Sun altitude
Rises 00:52:25 0° 354° (N) 3,381 10.8 -23.7°
Reaches altitude 10° 00:55:06 10° 344° (NNW) 2,412 9.6 -23.7°
Maximum altitude 00:59:45 31° 285° (WNW) 1,361 7.3 -23.7°
Enters shadow 01:01:16 26° 254° (WSW) 1,486 7.3 -23.7°
